User: anonymous   Login
Location: Unspecified
(0.0000°N, 0.0000°E)
Time: 20:15:23
(UTC+00:00)
Language:

STARLINK-6258 - Orbit

View from above orbital plane
View from above orbital plane
View from above satellite
View from above satellite

Ground track
Ground track

The orbit is defined by the following mean orbital elements,

1 56413U          26145.28463683 +.00000000 +00000-0 +81950-5 0 00008
2 56413  43.0017 114.9079 0000714 286.7709  73.3064 15.27571861    04
Epoch (UTC): 25 May 2026 06:49:52
Eccentricity: 0.0000714
inclination: 43.0017°
perigee height: 483 km
apogee height: 484 km
right ascension of ascending node: 114.9079°
argument of perigee: 286.7709°
revolutions per day: 15.27571861
mean anomaly at epoch: 73.3064°

The dashed part of the orbit path shows where the satellite is in the earth's shadow,  

DLR